World > North America > United States > Texas

Voca, Texas Regional Weather

Lat: 31.01N, Lon: 99.18W
Wx Zone: TXZ154Web Search
Voca Weather Warning NWS WEATHER ALERT FOR THE VOCA, TX AREA - SEVERE THUNDERSTORM WATCH Issued: 835 AM CDT THU APR 15 2021 Voca Weather Warning  

Helpful Tip: Abbreviated, 7 Day, 14 Day Forecasts. There is a weather forecast for every taste.

Feedback


°F Click to change Voca hourly weather to Imperial units.Click to change Voca hourly weather to Metric units. °C
Voca Weather Map
UTC Time: 4/15/2021, 14:14
Your Time:

Voca, TX Regional Weather

Expires:202104151500;;592863
ASUS44 KFWD 151410
RWRTX 
NORTH TEXAS HOURLY WEATHER ROUNDUP
NATIONAL WEATHER SERVICE FORT WORTH TX
900 AM CDT THU APR 15 2021

NOTE: "FAIR" INDICATES FEW OR NO CLOUDS BELOW 12,000 FEET WITH NO
SIGNIFICANT WEATHER AND/OR OBSTRUCTIONS TO VISIBILITY.


TXZ083>090-098>101-113>116-127>130-139>142-154-155-151500-
WESTERN NORTH TEXAS
  
CITY           SKY/WX    TMP DP  RH WIND       PRES   REMARKS
WICHITA FALLS  PTSUNNY   52  49  89 E16       30.07F                  
WF-KICKAPOO    CLOUDY    52  48  86 E10       30.10F                  
VERNON         CLOUDY    51  48  89 E9        30.12R                  
ABILENE        LGT RAIN  53  52  96 NE7       30.03S FOG              
ABILENE-DYESS  CLOUDY    51  51  98 NE6       30.03S FOG              
BRECKENRIDGE   CLOUDY    57  57 100 E7        30.03F THUNDER FOG      
CISCO          FOG       55  55 100 E12       30.01F VSB 1            
EASTLAND       CLOUDY    55 N/A N/A E10       30.04F FOG              
RANGER         FOG       55  55 100 E12       30.04F VSB 1/4          
MINERAL WELLS  CLOUDY    55  51  86 E14       30.05S                  
STEPHENVILLE   CLOUDY    57  55  92 E10       30.07S                  
COMANCHE       CLOUDY    57  57 100 E8        30.04S FOG              
BROWNWOOD      PTSUNNY   59  57  94 E8        30.02F                  
COLEMAN        LGT RAIN  57  56  97 E9        30.02F VSB 1            
BRADY          FOG       59  57  94 E10       30.00S VSB 3/4          
$$


SKY/WX - Weather  TMP - Temperature  DP - Dew Point  RH - Relative Humidity
WIND - Wind Direction/Speed PRES - Barometric Pressure VSB - Visibility
WCI - Wind Chill Index E13G22 Wind - East Wind 13 mph/Gusts of 22 mph